Simultaneous Nadir Overpasses (SNOs) Predictions

Prediction of SNOs between GOES-15 and NOAA-20 Satellite Orbit:

Table of predicted SNOs for the next 14.0 days since TLE Epoch: 3/23/2024
Index Date Time (GOES-15) GOES-15 Lat,Lon NOAA-20 Lat,Lon Distance(km) Time Diff (sec)
1 03/23/2024 21:25:12 0.09, 61.16 0.40, 59.80 155.18 80
2 03/24/2024 21:04:48 0.09, 61.16 -0.72, 64.73 407.18 80
3 03/26/2024 09:26:48 -0.09, 61.24 -0.37, 60.06 134.45 80
4 03/27/2024 09:03:44 -0.09, 61.24 0.77, 64.99 427.74 80
5 03/28/2024 21:22:58 0.09, 61.18 0.30, 60.34 95.85 80
6 03/29/2024 21:05:14 0.09, 61.19 -0.84, 65.27 465.88 80
7 03/31/2024 09:24:33 -0.09, 61.28 -0.25, 60.61 76.63 80
8 04/01/2024 09:04:07 -0.10, 61.29 0.84, 65.55 484.66 80
9 04/02/2024 21:20:43 0.10, 61.24 0.19, 60.89 40.61 80
10 04/05/2024 09:22:17 -0.11, 61.36 -0.14, 61.16 22.45 80
